KC2GYU Weather Reports


time (UTC)temp
F
wind
direction
speed
knots
gust
knots
rain 1hr
in
rain 24hr
in
rain mn
in
humidity
%
barometer
mb
20260506221911 67 264 0.0 0.0 0.00 0.00 0.00 88 1009.2
20260506221408 67 259 0.0 0.0 0.00 0.00 0.00 88 1009.2
20260506220906 67 249 0.0 0.0 0.00 0.00 0.00 88 1009.0
20260506220401 67 262 0.0 0.0 0.00 0.00 0.00 88 1009.0
20260506215858 67 272 0.0 0.0 0.00 0.00 0.00 88 1009.1
20260506215354 67 246 0.0 0.0 0.00 0.00 0.00 88 1009.1
20260506214850 67 253 0.0 0.0 0.00 0.00 0.00 88 1009.3
20260506214347 67 273 0.0 0.0 0.00 0.00 0.00 87 1009.2
20260506213845 67 273 0.0 0.0 0.00 0.00 0.00 87 1009.1
20260506213342 67 261 0.0 0.0 0.00 0.00 0.00 87 1008.9
20260506212839 67 266 0.0 0.0 0.00 0.00 0.00 88 1009.1
20260506212335 67 248 0.0 0.0 0.00 0.00 0.00 87 1008.6
20260506211830 67 230 0.0 0.0 0.00 0.00 0.00 87 1008.8
20260506211326 67 264 0.0 0.0 0.00 0.00 0.00 87 1008.5
20260506210824 68 284 0.0 0.0 0.00 0.00 0.00 86 1008.5
20260506210320 68 214 0.0 0.9 0.00 0.00 0.00 85 1008.7
20260506205818 68 236 0.9 1.7 0.00 0.00 0.00 85 1008.4
20260506205314 68 283 0.0 0.9 0.00 0.00 0.00 85 1008.7
20260506204810 68 278 0.0 0.0 0.00 0.00 0.00 86 1008.6
20260506204308 68 256 0.0 0.9 0.00 0.00 0.00 85 1008.4
20260506203806 67 213 0.0 0.0 0.00 0.00 0.00 86 1008.4
20260506203303 67 262 0.0 0.0 0.00 0.00 0.00 86 1008.5
20260506202759 68 256 0.0 0.0 0.00 0.00 0.00 86 1008.3
20260506202256 68 263 4.3 5.2 0.00 0.00 0.00 86 1008.6
20260506201753 67 172 0.9 1.7 0.00 0.00 0.00 87 1008.6
20260506201249 67 261 0.0 0.0 0.00 0.00 0.00 88 1008.7
20260506200747 67 258 0.0 0.0 0.00 0.00 0.00 89 1008.8
20260506200243 67 274 2.6 4.3 0.00 0.00 0.00 88 1008.7
20260506195739 67 265 1.7 4.3 0.00 0.00 0.00 87 1008.8
20260506195236 67 226 0.0 0.0 0.00 0.00 0.00 87 1008.9
20260506194733 67 249 0.0 0.0 0.00 0.00 0.00 87 1008.9
20260506194230 67 251 0.0 0.0 0.00 0.00 0.00 87 1009.0
20260506193728 67 267 0.0 0.0 0.00 0.00 0.00 87 1009.1
20260506193224 67 262 0.9 2.6 0.00 0.00 0.00 87 1009.4
20260506192721 67 287 0.0 0.0 0.00 0.00 0.00 87 1009.6
20260506192218 67 216 0.0 0.9 0.00 0.00 0.00 87 1009.3
20260506191709 67 240 0.0 0.0 0.00 0.00 0.00 87 1009.3
20260506191205 67 286 2.6 4.3 0.00 0.00 0.00 86 1009.5
20260506190703 68 282 0.0 0.0 0.00 0.00 0.00 86 1009.6
20260506190159 68 220 0.0 0.0 0.00 0.00 0.00 86 1009.5
20260506185656 68 264 0.0 0.9 0.00 0.00 0.00 86 1009.4
20260506185152 68 130 1.7 5.2 0.00 0.00 0.00 86 1009.8
20260506184645 68 123 3.5 5.2 0.00 0.00 0.00 87 1009.7
20260506184141 67 268 1.7 2.6 0.00 0.00 0.00 88 1009.8
20260506183638 66 250 0.0 0.0 0.00 0.00 0.00 89 1009.8
20260506183134 65 287 0.0 0.9 0.00 0.00 0.00 90 1009.9
20260506182632 65 251 0.0 0.9 0.00 0.00 0.00 90 1010.0
20260506182128 64 255 0.0 0.0 0.00 0.00 0.00 93 1010.2
20260506181626 63 275 0.0 0.0 0.00 0.00 0.00 94 1010.1
20260506181123 63 254 0.0 0.0 0.00 0.00 0.00 95 1009.8
20260506180620 63 252 0.0 0.0 0.00 0.00 0.00 95 1010.3
20260506180117 63 266 0.0 0.0 0.00 0.00 0.00 95 1010.0
20260506175613 63 260 0.0 0.0 0.00 0.00 0.00 95 1010.3
20260506175108 63 263 0.0 0.0 0.00 0.00 0.00 94 1010.3
20260506174608 63 269 0.0 0.0 0.00 0.00 0.00 93 1010.7
20260506174103 63 262 0.0 0.0 0.00 0.00 0.00 93 1010.5
20260506173601 64 253 0.0 0.0 0.00 0.00 0.00 92 1010.6
20260506173058 64 197 0.0 0.9 0.00 0.00 0.00 92 1010.4
20260506172556 64 293 0.0 0.9 0.00 0.00 0.00 92 1010.5
20260506172051 63 243 0.0 0.0 0.00 0.00 0.00 93 1010.6
20260506171549 63 264 0.0 0.0 0.00 0.00 0.00 93 1010.7
20260506171046 63 252 0.0 0.0 0.00 0.00 0.00 93 1010.6
20260506170544 64 40 0.0 0.9 0.00 0.00 0.00 93 1010.4
20260506170041 64 275 0.0 0.0 0.00 0.00 0.00 92 1010.6
20260506165539 64 282 0.0 0.9 0.00 0.00 0.00 90 1010.9
20260506165035 64 284 0.0 0.0 0.00 0.00 0.00 90 1011.2
20260506164532 64 270 0.0 0.0 0.00 0.00 0.00 90 1011.2
20260506164030 64 257 0.0 0.9 0.00 0.00 0.00 89 1011.3
20260506163526 64 265 0.0 0.0 0.00 0.00 0.00 90 1011.3
20260506163021 64 224 0.0 0.0 0.00 0.00 0.00 89 1011.5
20260506162518 64 252 0.0 0.0 0.00 0.00 0.00 89 1011.6
20260506162009 64 269 0.0 0.9 0.00 0.00 0.00 89 1011.6
20260506161507 64 245 2.6 4.3 0.00 0.00 0.00 88 1011.6
20260506160958 64 260 0.0 0.0 0.00 0.00 0.00 89 1011.7
20260506160456 65 258 0.0 0.0 0.00 0.00 0.00 87 1011.5
20260506155953 64 265 0.0 0.0 0.00 0.00 0.00 89 1011.7
20260506155451 64 270 0.0 0.0 0.00 0.00 0.00 88 1011.9
20260506153622 66 223 0.0 0.0 0.00 0.00 0.00 87 1012.2
20260506153119 65 234 0.0 0.0 0.00 0.00 0.00 87 1012.0
20260506152616 67 266 0.0 0.0 0.00 0.00 0.00 85 1012.0
20260506152115 66 174 0.0 0.0 0.00 0.00 0.00 85 1012.1
20260506151613 67 190 3.5 7.0 0.00 0.00 0.00 85 1012.2
20260506151109 66 258 0.0 0.0 0.00 0.00 0.00 85 1012.1
20260506150606 66 264 0.0 0.0 0.00 0.00 0.00 85 1012.0
20260506145559 68 136 0.0 1.7 0.00 0.00 0.00 84 1012.3
20260506145057 68 261 4.3 5.2 0.00 0.00 0.00 84 1011.9
20260506144554 67 293 1.7 4.3 0.00 0.00 0.00 84 1012.0
20260506144050 67 216 0.0 0.0 0.00 0.00 0.00 85 1012.4
20260506143548 66 265 0.0 0.0 0.00 0.00 0.00 86 1012.4
20260506143046 66 256 0.0 0.0 0.00 0.00 0.00 86 1012.3
20260506142544 66 245 0.9 1.7 0.00 0.00 0.00 85 1012.2
20260506142042 66 260 4.3 6.1 0.00 0.00 0.00 84 1012.1
20260506141539 66 251 0.0 0.0 0.00 0.00 0.00 86 1012.2
20260506141038 66 268 0.0 0.0 0.00 0.00 0.00 85 1012.3
20260506140535 66 258 0.0 0.9 0.00 0.00 0.00 85 1012.2
20260506140032 67 225 1.7 1.7 0.00 0.00 0.00 84 1012.2
20260506135529 67 263 0.0 0.9 0.00 0.00 0.00 84 1012.2
20260506135025 66 175 0.9 2.6 0.00 0.00 0.00 85 1012.0
20260506134521 65 264 0.0 0.0 0.00 0.00 0.00 87 1012.3
20260506134017 65 279 0.0 0.9 0.00 0.00 0.00 86 1012.1
20260506133515 64 265 0.0 0.0 0.00 0.00 0.00 87 1012.3
20260506133012 64 205 2.6 5.2 0.00 0.00 0.00 88 1012.3
20260506132508 64 266 0.9 2.6 0.00 0.00 0.00 88 1012.3
20260506132006 65 257 1.7 2.6 0.00 0.00 0.00 87 1012.4
20260506131503 65 279 0.0 0.0 0.00 0.00 0.00 87 1012.6
20260506130959 64 258 0.0 0.0 0.00 0.00 0.00 88 1012.6
20260506130456 65 248 0.0 0.9 0.00 0.00 0.00 87 1012.6
20260506125954 65 173 2.6 4.3 0.00 0.00 0.00 87 1012.8
20260506125452 67 260 0.0 0.0 0.00 0.00 0.00 85 1012.6
20260506124949 66 253 0.0 0.0 0.00 0.00 0.00 86 1012.5
20260506124447 65 266 4.3 7.8 0.00 0.00 0.00 86 1012.5
20260506123945 65 260 0.0 0.0 0.00 0.00 0.00 87 1012.5
20260506123443 65 255 0.0 0.0 0.00 0.00 0.00 88 1012.7
20260506122940 64 265 3.5 6.1 0.00 0.00 0.00 88 1012.4
20260506122437 64 253 0.0 0.0 0.00 0.00 0.00 89 1012.5
20260506121935 64 225 0.0 0.0 0.00 0.00 0.00 89 1012.6
20260506121431 63 264 0.0 0.9 0.00 0.00 0.00 90 1012.4
20260506120929 63 282 0.0 0.9 0.00 0.00 0.00 91 1012.5
20260506120426 63 259 0.0 0.0 0.00 0.00 0.00 91 1012.7
20260506115923 63 251 0.0 0.0 0.00 0.00 0.00 91 1012.4
20260506115421 63 262 0.0 0.0 0.00 0.00 0.00 90 1012.6
20260506114919 63 280 2.6 4.3 0.00 0.00 0.00 90 1012.4
20260506114416 63 265 0.0 0.0 0.00 0.00 0.00 91 1012.4
20260506113915 62 258 0.0 0.0 0.00 0.00 0.00 92 1012.6
20260506113412 62 257 0.0 0.0 0.00 0.00 0.00 92 1012.5
20260506112909 61 265 0.9 0.9 0.00 0.00 0.00 93 1012.4
20260506112407 60 261 0.0 0.0 0.00 0.00 0.00 94 1012.3
20260506111903 60 263 0.0 0.0 0.00 0.00 0.00 95 1012.1
20260506111401 59 257 0.0 0.0 0.00 0.00 0.00 96 1012.4
20260506110859 59 262 0.0 0.0 0.00 0.00 0.00 96 1012.6
20260506110356 58 272 0.0 0.0 0.00 0.00 0.00 97 1012.5
20260506105853 58 258 0.0 0.0 0.00 0.00 0.00 97 1012.6
20260506105349 58 262 0.0 0.0 0.00 0.00 0.00 97 1012.6
20260506104846 57 249 0.0 0.9 0.00 0.00 0.00 97 1012.3
20260506104344 57 265 2.6 2.6 0.00 0.00 0.00 97 1012.5
20260506103842 57 275 0.0 0.0 0.00 0.00 0.00 97 1012.4
20260506103339 57 259 0.0 0.9 0.00 0.00 0.00 97 1012.6
20260506102836 57 263 0.0 0.0 0.00 0.00 0.00 97 1012.5
20260506102334 57 269 0.9 1.7 0.00 0.00 0.00 97 1012.6
20260506101831 57 260 0.0 0.0 0.00 0.00 0.00 97 1012.4
20260506101327 57 128 0.0 1.7 0.00 0.00 0.00 97 1012.2
20260506100825 57 218 0.0 0.0 0.00 0.00 0.00 97 1012.3
20260506100323 57 268 0.0 0.0 0.00 0.00 0.00 97 1012.1
20260506095821 57 316 0.0 0.9 0.00 0.00 0.00 97 1012.2
20260506095318 57 286 0.9 2.6 0.00 0.00 0.00 97 1012.2
20260506094815 57 262 0.0 0.9 0.00 0.00 0.00 97 1012.3
20260506094314 57 264 0.0 0.0 0.00 0.00 0.00 97 1012.4
20260506093812 57 260 0.0 0.0 0.00 0.00 0.00 97 1012.4
20260506093308 57 328 0.0 0.0 0.00 0.00 0.00 97 1012.3
20260506092806 57 259 0.0 0.0 0.00 0.00 0.00 97 1012.4
20260506092306 57 263 0.9 1.7 0.00 0.00 0.00 97 1012.2
20260506091800 57 255 0.0 0.0 0.00 0.00 0.00 97 1012.5
20260506091258 57 260 0.0 0.0 0.00 0.00 0.00 97 1012.4
20260506090756 57 250 0.0 0.0 0.00 0.00 0.00 97 1012.4
20260506090253 57 261 0.0 0.0 0.00 0.00 0.00 97 1012.4
20260506085749 57 272 0.0 0.0 0.00 0.00 0.00 97 1012.4
20260506085246 57 240 0.0 0.0 0.00 0.00 0.00 97 1012.6
20260506084742 57 265 0.0 0.0 0.00 0.00 0.00 97 1012.5
20260506084238 57 265 0.0 0.9 0.00 0.00 0.00 97 1012.5
20260506083736 57 262 0.0 0.0 0.00 0.00 0.00 97 1012.7
20260506083233 57 258 0.0 0.0 0.00 0.00 0.00 97 1012.8
20260506082731 57 268 0.0 0.0 0.00 0.00 0.00 97 1012.6
20260506082226 57 267 0.0 0.0 0.00 0.00 0.00 97 1012.7
20260506081724 58 265 0.0 0.0 0.00 0.00 0.00 97 1012.6
20260506081221 58 277 0.0 0.9 0.00 0.00 0.00 97 1012.6
20260506080719 58 280 0.0 0.0 0.00 0.00 0.00 97 1012.6
20260506080215 58 295 0.9 4.3 0.00 0.00 0.00 97 1012.5
20260506073200 58 273 0.0 0.0 0.00 0.00 0.00 97 1012.6
20260506072656 58 283 0.0 0.0 0.00 0.00 0.00 97 1012.6
20260506072154 58 258 0.0 0.0 0.00 0.00 0.00 97 1012.6
20260506071651 58 249 0.0 0.9 0.00 0.00 0.00 97 1012.6
20260506071149 58 123 0.0 1.7 0.00 0.00 0.00 96 1012.8
20260506070645 58 262 0.0 0.0 0.00 0.00 0.00 96 1012.7
20260506070142 58 268 0.9 1.7 0.00 0.00 0.00 96 1012.6
20260506062120 58 329 2.6 2.6 0.00 0.00 0.00 96 1012.8
20260506061616 58 174 0.0 0.9 0.00 0.00 0.00 96 1012.5
20260506061114 58 285 1.7 2.6 0.00 0.00 0.00 95 1012.7
20260506060612 58 233 0.0 0.0 0.00 0.00 0.00 95 1012.6
20260506060108 58 263 0.9 1.7 0.00 0.00 0.00 95 1012.9
20260506051040 59 238 0.0 0.9 0.00 0.00 0.00 94 1013.3
20260506050538 59 270 0.0 0.0 0.00 0.00 0.00 94 1013.2
20260506045029 59 289 0.0 0.0 0.00 0.00 0.00 93 1013.4
20260506044527 60 265 0.0 0.0 0.00 0.00 0.00 93 1013.3
20260506044023 60 251 0.0 0.9 0.00 0.00 0.00 93 1013.1
20260506043520 60 216 0.0 0.0 0.00 0.00 0.00 93 1013.3
20260506043019 60 263 0.0 0.9 0.00 0.00 0.00 93 1013.4
20260506042518 60 264 2.6 4.3 0.00 0.00 0.00 93 1013.2
20260506042015 60 296 0.0 0.9 0.00 0.00 0.00 93 1013.1
20260506041514 60 213 0.0 0.9 0.00 0.00 0.00 93 1013.1
20260506041010 60 247 0.0 0.0 0.00 0.00 0.00 92 1013.1
20260506040508 60 312 0.0 0.0 0.00 0.00 0.00 92 1013.2
20260506040003 60 282 5.2 9.6 0.00 0.00 0.00 92 1013.1
20260506035501 60 281 0.0 0.0 0.00 0.00 0.00 92 1013.2
20260506034957 60 232 0.0 0.9 0.00 0.00 0.00 92 1013.1
20260506034455 60 196 0.0 1.7 0.00 0.00 0.00 92 1013.3
20260506033951 60 258 2.6 2.6 0.00 0.00 0.00 92 1013.2
20260506033449 60 257 0.9 1.7 0.00 0.00 0.00 92 1013.1
20260506032945 60 255 0.0 0.0 0.00 0.00 0.00 92 1013.2
20260506032443 60 268 0.0 0.0 0.00 0.00 0.00 92 1013.3
20260506031939 60 274 0.0 0.0 0.00 0.00 0.00 92 1013.3
20260506031437 60 274 0.0 0.0 0.00 0.00 0.00 92 1013.1
20260506030934 60 252 0.0 0.0 0.00 0.00 0.00 91 1013.5
20260506030432 60 263 3.5 5.2 0.00 0.00 0.00 91 1013.3
20260506025929 60 7 2.6 5.2 0.00 0.00 0.00 91 1013.4
20260506025426 60 266 0.0 0.9 0.00 0.00 0.00 91 1013.4
20260506024922 60 277 0.0 0.0 0.00 0.00 0.00 90 1013.2
20260506024419 60 345 1.7 5.2 0.00 0.00 0.00 90 1013.4
20260506023915 60 235 0.9 1.7 0.00 0.00 0.00 90 1013.3
20260506023413 60 258 0.0 0.0 0.00 0.00 0.00 90 1013.3
20260506022909 61 239 0.0 0.0 0.00 0.00 0.00 89 1013.2
20260506022407 61 240 2.6 5.2 0.00 0.00 0.00 89 1013.3
20260506021904 61 266 0.0 0.0 0.00 0.00 0.00 89 1013.3
20260506021401 61 262 0.0 0.0 0.00 0.00 0.00 89 1013.4
20260506020858 61 190 0.0 0.9 0.00 0.00 0.00 89 1013.2
20260506020356 61 278 1.7 2.6 0.00 0.00 0.00 89 1013.3
20260506015853 61 201 0.0 0.0 0.00 0.00 0.00 89 1013.4
20260506015351 61 245 0.0 0.0 0.00 0.00 0.00 89 1013.3
20260506014847 61 302 0.9 2.6 0.00 0.00 0.00 89 1013.1
20260506014344 61 188 0.0 0.9 0.00 0.00 0.00 89 1013.2
20260506013840 61 269 2.6 2.6 0.00 0.00 0.00 88 1013.3
20260506013338 61 230 0.0 0.9 0.00 0.00 0.00 88 1013.2
20260506012834 61 263 0.0 0.0 0.00 0.00 0.00 88 1013.2
20260506012332 61 286 0.0 0.0 0.00 0.00 0.00 88 1013.0
20260506011829 61 257 2.6 4.3 0.00 0.00 0.00 87 1013.2
20260506011325 61 244 0.0 0.0 0.00 0.00 0.00 87 1012.8
20260506010823 61 196 0.0 0.9 0.00 0.00 0.00 87 1013.2
20260506010321 61 246 0.0 0.9 0.00 0.00 0.00 88 1012.8
20260506005817 61 267 0.9 2.6 0.00 0.00 0.00 88 1012.8
20260506005314 61 260 1.7 1.7 0.00 0.00 0.00 87 1012.8
20260506004810 61 333 2.6 5.2 0.00 0.00 0.00 88 1012.5
20260506004308 61 268 4.3 6.1 0.00 0.00 0.00 88 1012.6
20260506003804 61 241 0.0 0.0 0.00 0.00 0.00 89 1012.5
20260506003300 61 255 0.9 1.7 0.00 0.00 0.00 89 1012.5
20260506002757 61 284 1.7 2.6 0.00 0.00 0.00 89 1012.5
20260506002253 61 268 1.7 2.6 0.00 0.00 0.00 89 1012.8
20260506001749 61 258 0.0 0.0 0.00 0.00 0.00 89 1012.9
20260506001247 61 293 0.0 0.0 0.00 0.00 0.00 88 1012.5
20260506000743 61 235 2.6 4.3 0.00 0.00 0.00 88 1012.6
20260506000241 61 251 0.0 0.0 0.00 0.00 0.00 88 1012.5
20260505235737 61 265 0.0 0.0 0.00 0.00 0.00 87 1012.3
20260505235235 62 247 0.0 0.0 0.00 0.00 0.00 87 1012.6
20260505234732 62 247 0.0 0.9 0.00 0.00 0.00 86 1012.6
20260505234229 62 238 0.0 0.9 0.00 0.00 0.00 86 1012.6
20260505233726 62 246 2.6 5.2 0.00 0.00 0.00 85 1012.2
20260505233224 62 275 0.9 1.7 0.00 0.00 0.00 84 1012.3
20260505232721 63 267 0.0 0.0 0.00 0.00 0.00 84 1012.4
20260505232218 63 275 2.6 4.3 0.00 0.00 0.00 83 1012.4
20260505231715 63 265 0.0 0.9 0.00 0.00 0.00 82 1012.4
20260505231214 64 239 0.0 0.0 0.00 0.00 0.00 82 1012.2
20260505230712 64 291 4.3 7.0 0.00 0.00 0.00 81 1012.3
20260505230208 64 163 1.7 4.3 0.00 0.00 0.00 80 1012.2
20260505225705 65 244 0.0 0.9 0.00 0.00 0.00 80 1012.4
20260505225201 65 233 0.9 0.9 0.00 0.00 0.00 79 1012.1
20260505224656 65 271 1.7 5.2 0.00 0.00 0.00 78 1012.3
20260505224155 66 231 0.0 0.9 0.00 0.00 0.00 77 1012.0
20260505223652 66 240 0.0 0.9 0.00 0.00 0.00 77 1011.9
20260505223148 66 264 0.9 1.7 0.00 0.00 0.00 77 1012.1
20260505222644 66 265 3.5 7.0 0.00 0.00 0.00 77 1012.0